,,,PA_Meas_PMT16A,,PR_Meas_QMR101_102,,RH_Meas_QMH101,,SR_Meas_QMS101,,TA_Meas_QMH101,,GenWind,,GenWind,
date,time,status,PA,status,PR,status,RH,status,SR,status,TA,status,DirAvg,status,SpdAvg,
2010-02-22, 00:00:04,VALID,1006.78,VALID,0,VALID,91.3253,VALID,0,VALID,25.0079,VALID,354,VALID,0.510938,
2010-02-22, 00:01:04,VALID,1006.79,VALID,0,VALID,91.3711,VALID,0,VALID,25.0469,VALID,354,VALID,0.414063,
2010-02-22, 00:02:04,VALID,1006.78,VALID,0,VALID,91.2872,VALID,0,VALID,25.0469,VALID,348,VALID,0.461328,
2010-02-22, 00:03:04,VALID,1006.79,VALID,0,VALID,91.3024,VALID,0,VALID,25.0682,VALID,348,VALID,0.292578,
2010-02-22, 00:04:04,VALID,1006.8,VALID,0,VALID,91.4092,VALID,0,VALID,25.0488,VALID,348,VALID,0.274219,
2010-02-22, 00:05:04,VALID,1006.77,VALID,0,VALID,91.4474,VALID,0,VALID,25.0274,VALID,348,VALID,0.1625,
2010-02-22, 00:06:04,VALID,1006.78,VALID,0,VALID,91.333,VALID,0,VALID,25.0079,VALID,348,VALID,0.148047,
2010-02-22, 00:07:04,VALID,1006.77,VALID,0,VALID,91.3558,VALID,0,VALID,25.0274,VALID,348,VALID,0.175781,
2010-02-22, 00:08:04,VALID,1006.78,VALID,0,VALID,91.3253,VALID,0,VALID,25.0274,VALID,348,VALID,0.0445312,
2010-02-22, 00:09:04,VALID,1006.76,VALID,0,VALID,91.3177,VALID,0,VALID,25.0488,VALID,348,VALID,0.0207031,
2010-02-22, 00:10:04,VALID,1006.72,VALID,0,VALID,91.4321,VALID,0,VALID,25.045,VALID,348,VALID,0.338672,
2010-02-22, 00:11:04,VALID,1006.74,VALID,0,VALID,91.5237,VALID,0,VALID,25.0469,VALID,348,VALID,0.225391,
2010-02-22, 00:12:04,VALID,1006.74,VALID,0,VALID,91.6,VALID,0,VALID,25.0469,VALID,348,VALID,0.346094,
2010-02-22, 00:13:04,VALID,1006.72,VALID,0,VALID,91.5466,VALID,0,VALID,25.0469,VALID,348,VALID,0.206641,
2010-02-22, 00:14:04,VALID,1006.7,VALID,0,VALID,91.5389,VALID,0,VALID,25.0274,VALID,348,VALID,0.230469,
2010-02-22, 00:15:04,VALID,1006.68,VALID,0,VALID,91.5771,VALID,0,VALID,25.0274,VALID,348,VALID,0.283984,
2010-02-22, 00:16:04,VALID,1006.68,VALID,0,VALID,91.6763,VALID,0,VALID,25.006,VALID,348,VALID,0.294531,
2010-02-22, 00:17:04,VALID,1006.65,VALID,0,VALID,91.7831,VALID,0,VALID,25.0469,VALID,348,VALID,0.215234,
2010-02-22, 00:18:04,VALID,1006.63,VALID,0,VALID,91.8899,VALID,0,VALID,25.0274,VALID,348,VALID,0.396094,
2010-02-22, 00:19:04,VALID,1006.61,VALID,0,VALID,91.989,VALID,0,VALID,25.0293,VALID,348,VALID,0.346875,
2010-02-22, 00:20:04,VALID,1006.59,VALID,0,VALID,92.0806,VALID,0,VALID,24.9885,VALID,348,VALID,0.346484,
2010-02-22, 00:21:04,VALID,1006.6,VALID,0,VALID,92.1569,VALID,0,VALID,24.969,VALID,348,VALID,0.361719,
2010-02-22, 00:22:04,VALID,1006.59,VALID,0,VALID,92.2103,VALID,0,VALID,24.9514,VALID,348,VALID,0.279297,
2010-02-22, 00:23:04,VALID,1006.56,VALID,0,VALID,92.3095,VALID,0,VALID,24.9319,VALID,348,VALID,0.325,
2010-02-22, 00:24:04,VALID,1006.56,VALID,0,VALID,92.3323,VALID,0,VALID,24.9106,VALID,348,VALID,0.272656,
2010-02-22, 00:25:04,VALID,1006.55,VALID,0,VALID,92.4315,VALID,0,VALID,24.8911,VALID,348,VALID,0.230469,
2010-02-22, 00:26:04,VALID,1006.52,VALID,0,VALID,92.4773,VALID,0,VALID,24.8911,VALID,348,VALID,0.440234,
2010-02-22, 00:27:04,VALID,1006.49,VALID,0,VALID,92.5078,VALID,0,VALID,24.893,VALID,348,VALID,0.344141,
2010-02-22, 00:28:04,VALID,1006.48,VALID,0,VALID,92.5612,VALID,0,VALID,24.8716,VALID,350,VALID,0.390625,
2010-02-22, 00:29:04,VALID,1006.47,VALID,0,VALID,92.5002,VALID,0,VALID,24.8113,VALID,350,VALID,0.344922,
2010-02-22, 00:30:04,VALID,1006.47,VALID,0,VALID,92.4849,VALID,0,VALID,24.8113,VALID,350,VALID,0.168359,
2010-02-22, 00:31:04,VALID,1006.44,VALID,0,VALID,92.4773,VALID,0,VALID,24.8522,VALID,350,VALID,0.0925781,
2010-02-22, 00:32:04,VALID,1006.43,VALID,0,VALID,92.4773,VALID,0,VALID,24.8735,VALID,350,VALID,0.308203,
2010-02-22, 00:33:04,VALID,1006.42,VALID,0,VALID,92.4163,VALID,0,VALID,24.893,VALID,350,VALID,0.325,
2010-02-22, 00:34:04,VALID,1006.41,VALID,0,VALID,92.3247,VALID,0,VALID,24.9125,VALID,350,VALID,0.201562,
2010-02-22, 00:35:04,VALID,1006.41,VALID,0,VALID,92.1874,VALID,0,VALID,24.9106,VALID,350,VALID,0.275,
2010-02-22, 00:36:04,VALID,1006.38,VALID,0,VALID,92.1492,VALID,0,VALID,24.93,VALID,350,VALID,0.345703,
2010-02-22, 00:37:04,VALID,1006.38,VALID,0,VALID,91.9738,VALID,0,VALID,24.93,VALID,350,VALID,0.532812,
2010-02-22, 00:38:04,VALID,1006.4,VALID,0,VALID,91.9433,VALID,0,VALID,24.9495,VALID,349,VALID,0.321484,
2010-02-22, 00:39:04,VALID,1006.41,VALID,0,VALID,91.7754,VALID,0,VALID,24.9495,VALID,349,VALID,0.228125,
2010-02-22, 00:40:04,VALID,1006.4,VALID,0,VALID,91.6686,VALID,0,VALID,24.9904,VALID,349,VALID,0.386328,
2010-02-22, 00:41:04,VALID,1006.42,VALID,0,VALID,91.6839,VALID,0,VALID,24.9671,VALID,349,VALID,0.396484,
2010-02-22, 00:42:04,VALID,1006.43,VALID,0,VALID,91.7907,VALID,0,VALID,24.9885,VALID,349,VALID,0.337109,
2010-02-22, 00:43:04,VALID,1006.45,VALID,0,VALID,91.8212,VALID,0,VALID,24.969,VALID,349,VALID,0.285937,
2010-02-22, 00:44:04,VALID,1006.4,VALID,0,VALID,91.8288,VALID,0,VALID,24.969,VALID,349,VALID,0.127734,
2010-02-22, 00:45:04,VALID,1006.41,VALID,0,VALID,91.867,VALID,0,VALID,24.9495,VALID,349,VALID,0,
2010-02-22, 00:46:04,VALID,1006.41,VALID,0,VALID,91.8288,VALID,0,VALID,24.969,VALID,349,VALID,0.224609,
2010-02-22, 00:47:04,VALID,1006.41,VALID,0,VALID,91.928,VALID,0,VALID,25.0098,VALID,349,VALID,0.216797,
2010-02-22, 00:48:04,VALID,1006.39,VALID,0,VALID,91.9128,VALID,0,VALID,24.9885,VALID,349,VALID,0.146875,
2010-02-22, 00:49:04,VALID,1006.4,VALID,0,VALID,91.8441,VALID,0,VALID,24.9671,VALID,349,VALID,0.271094,
2010-02-22, 00:50:04,VALID,1006.38,VALID,0,VALID,91.9814,VALID,0,VALID,25.0079,VALID,349,VALID,0.33125,
2010-02-22, 00:51:04,VALID,1006.34,VALID,0,VALID,92.0119,VALID,0,VALID,24.9885,VALID,349,VALID,0.416016,
2010-02-22, 00:52:04,VALID,1006.34,VALID,0,VALID,92.0272,VALID,0,VALID,24.969,VALID,349,VALID,0.331641,
2010-02-22, 00:53:04,VALID,1006.35,VALID,0,VALID,91.8899,VALID,0,VALID,24.9106,VALID,349,VALID,0.314453,
2010-02-22, 00:54:04,VALID,1006.31,VALID,0,VALID,92.0577,VALID,0,VALID,24.9319,VALID,349,VALID,0.370703,
2010-02-22, 00:55:04,VALID,1006.29,VALID,0,VALID,92.2866,VALID,0,VALID,24.9495,VALID,349,VALID,0.343359,
2010-02-22, 00:56:04,VALID,1006.29,VALID,0,VALID,92.4391,VALID,0,VALID,24.93,VALID,349,VALID,0.448047,
2010-02-22, 00:57:04,VALID,1006.26,VALID,0,VALID,92.462,VALID,0,VALID,24.9106,VALID,349,VALID,0.511719,
2010-02-22, 00:58:04,VALID,1006.27,VALID,0,VALID,92.3934,VALID,0,VALID,24.9125,VALID,349,VALID,0.666016,
2010-02-22, 00:59:04,VALID,1006.24,VALID,0,VALID,91.989,VALID,0,VALID,24.9125,VALID,350,VALID,0.464844,
2010-02-22, 01:00:04,VALID,1006.26,VALID,0,VALID,91.7602,VALID,0,VALID,24.93,VALID,350,VALID,0.462109,
2010-02-22, 01:01:04,VALID,1006.24,VALID,0,VALID,91.4779,VALID,0,VALID,24.969,VALID,340,VALID,0.584766,
2010-02-22, 01:02:04,VALID,1006.25,VALID,0,VALID,91.0354,VALID,0,VALID,24.9885,VALID,342,VALID,0.570313,
2010-02-22, 01:03:04,VALID,1006.25,VALID,0,VALID,91.0278,VALID,0,VALID,25.0469,VALID,342,VALID,0.5375,
2010-02-22, 01:04:04,VALID,1006.26,VALID,0,VALID,90.5167,VALID,0,VALID,25.045,VALID,342,VALID,0.479297,
2010-02-22, 01:05:04,VALID,1006.23,VALID,0,VALID,90.4709,VALID,0,VALID,25.1267,VALID,342,VALID,0.538672,
2010-02-22, 01:06:04,VALID,1006.21,VALID,0,VALID,90.5472,VALID,0,VALID,25.1267,VALID,342,VALID,0.464844,
2010-02-22, 01:07:04,VALID,1006.23,VALID,0,VALID,90.0818,VALID,0,VALID,25.0858,VALID,342,VALID,0.448828,
2010-02-22, 01:08:04,VALID,1006.16,VALID,0,VALID,89.8453,VALID,0,VALID,25.1053,VALID,348,VALID,0.4375,
2010-02-22, 01:09:04,VALID,1006.15,VALID,0,VALID,90.2649,VALID,0,VALID,25.1442,VALID,348,VALID,0.589063,
2010-02-22, 01:10:04,VALID,1006.13,VALID,0,VALID,89.914,VALID,0,VALID,25.1248,VALID,347,VALID,0.564844,
2010-02-22, 01:11:04,VALID,1006.1,VALID,0,VALID,89.6851,VALID,0,VALID,25.1461,VALID,347,VALID,0.535937,
2010-02-22, 01:12:04,VALID,1006.13,VALID,0,VALID,89.4028,VALID,0,VALID,25.1461,VALID,346,VALID,0.579687,
2010-02-22, 01:13:04,VALID,1006.1,VALID,0,VALID,89.2121,VALID,0,VALID,25.1442,VALID,346,VALID,0.446094,
2010-02-22, 01:14:04,VALID,1006.07,VALID,0,VALID,89.2732,VALID,0,VALID,25.1618,VALID,346,VALID,0.497656,
2010-02-22, 01:15:04,VALID,1006.06,VALID,0,VALID,88.9604,VALID,0,VALID,25.1637,VALID,346,VALID,0.5875,
2010-02-22, 01:16:04,VALID,1006.07,VALID,0,VALID,89.1664,VALID,0,VALID,25.1832,VALID,346,VALID,0.564453,
2010-02-22, 01:17:04,VALID,1006.06,VALID,0,VALID,89.502,VALID,0,VALID,25.224,VALID,346,VALID,0.442578,
2010-02-22, 01:18:05,VALID,1006.03,VALID,0,VALID,89.5554,VALID,0,VALID,25.1832,VALID,346,VALID,0.55,
2010-02-22, 01:19:05,VALID,1006.02,VALID,0,VALID,89.9979,VALID,0,VALID,25.1637,VALID,348,VALID,0.477734,
2010-02-22, 01:20:05,VALID,1006.03,VALID,0,VALID,90.1276,VALID,0,VALID,25.1656,VALID,350,VALID,0.465625,
2010-02-22, 01:21:05,VALID,1006.02,VALID,0,VALID,90.2878,VALID,0,VALID,25.1053,VALID,350,VALID,0.405078,
2010-02-22, 01:22:05,VALID,1005.98,VALID,0,VALID,90.3565,VALID,0,VALID,25.0858,VALID,350,VALID,0.476953,
2010-02-22, 01:23:05,VALID,1006,VALID,0,VALID,90.3412,VALID,0,VALID,25.045,VALID,349,VALID,0.446094,
2010-02-22, 01:24:05,VALID,1005.99,VALID,0,VALID,90.5319,VALID,0,VALID,25.0663,VALID,349,VALID,0.444922,
2010-02-22, 01:25:05,VALID,1006.01,VALID,0,VALID,90.8295,VALID,0,VALID,25.0663,VALID,349,VALID,0.480859,
2010-02-22, 01:26:05,VALID,1006,VALID,0,VALID,90.8142,VALID,0,VALID,25.0469,VALID,349,VALID,0.523828,
2010-02-22, 01:27:05,VALID,1005.99,VALID,0,VALID,90.6616,VALID,0,VALID,25.0274,VALID,349,VALID,0.474609,
2010-02-22, 01:28:05,VALID,1005.96,VALID,0,VALID,90.8218,VALID,0,VALID,25.0079,VALID,349,VALID,0.443359,
2010-02-22, 01:29:05,VALID,1005.98,VALID,0,VALID,90.8295,VALID,0,VALID,25.0079,VALID,349,VALID,0.452344,
2010-02-22, 01:30:05,VALID,1005.95,VALID,0,VALID,90.8905,VALID,0,VALID,24.969,VALID,349,VALID,0.488281,
2010-02-22, 01:31:05,VALID,1005.94,VALID,0,VALID,90.6311,VALID,0,VALID,24.969,VALID,349,VALID,0.380078,
2010-02-22, 01:32:05,VALID,1005.95,VALID,0,VALID,90.6464,VALID,0,VALID,24.969,VALID,349,VALID,0.510938,
2010-02-22, 01:33:05,VALID,1005.92,VALID,0,VALID,90.9897,VALID,0,VALID,25.0079,VALID,345,VALID,0.398438,
2010-02-22, 01:34:05,VALID,1005.94,VALID,0,VALID,90.9057,VALID,0,VALID,24.9885,VALID,345,VALID,0.471484,
2010-02-22, 01:35:05,VALID,1005.91,VALID,0,VALID,90.6845,VALID,0,VALID,25.0079,VALID,358,VALID,0.591406,
2010-02-22, 01:36:05,VALID,1005.93,VALID,0,VALID,90.2802,VALID,0,VALID,25.0274,VALID,359,VALID,0.696094,
2010-02-22, 01:37:05,VALID,1005.89,VALID,0,VALID,90.0666,VALID,0,VALID,25.0663,VALID,347,VALID,0.770703,
2010-02-22, 01:38:05,VALID,1005.89,VALID,0,VALID,89.4257,VALID,0,VALID,25.0858,VALID,347,VALID,0.452734,
2010-02-22, 01:39:05,VALID,1005.88,VALID,0,VALID,89.2732,VALID,0,VALID,25.1248,VALID,347,VALID,0.502734,
2010-02-22, 01:40:05,VALID,1005.88,VALID,0,VALID,89.6241,VALID,0,VALID,25.2046,VALID,347,VALID,0.451172,
2010-02-22, 01:41:05,VALID,1005.87,VALID,0,VALID,88.9756,VALID,0,VALID,25.1618,VALID,335,VALID,0.483984,
2010-02-22, 01:42:05,VALID,1005.88,VALID,0,VALID,89.0672,VALID,0,VALID,25.2221,VALID,335,VALID,0.427734,
2010-02-22, 01:43:05,VALID,1005.86,VALID,0,VALID,89.0443,VALID,0,VALID,25.224,VALID,335,VALID,0.397656,
2010-02-22, 01:44:05,VALID,1005.89,VALID,0,VALID,89.1587,VALID,0,VALID,25.2435,VALID,335,VALID,0.477734,
2010-02-22, 01:45:05,VALID,1005.87,VALID,0,VALID,89.1511,VALID,0,VALID,25.2027,VALID,336,VALID,0.335938,
2010-02-22, 01:46:05,VALID,1005.87,VALID,0,VALID,89.4105,VALID,0,VALID,25.2435,VALID,336,VALID,0.0640625,
2010-02-22, 01:47:05,VALID,1005.87,VALID,0,VALID,89.1816,VALID,0,VALID,25.224,VALID,336,VALID,0.4,
2010-02-22, 01:48:05,VALID,1005.89,VALID,0,VALID,89.0138,VALID,0,VALID,25.2221,VALID,336,VALID,0.0351563,
2010-02-22, 01:49:05,VALID,1005.88,VALID,0,VALID,89.0061,VALID,0,VALID,25.2416,VALID,336,VALID,0,
2010-02-22, 01:50:05,VALID,1005.86,VALID,0,VALID,89.0519,VALID,0,VALID,25.2611,VALID,336,VALID,0,
2010-02-22, 01:51:05,VALID,1005.88,VALID,0,VALID,89.0443,VALID,0,VALID,25.2611,VALID,334,VALID,0.0300781,
2010-02-22, 01:52:05,VALID,1005.87,VALID,0,VALID,88.6247,VALID,0,VALID,25.2806,VALID,306,VALID,0.330859,
2010-02-22, 01:53:05,VALID,1005.87,VALID,0,VALID,88.4645,VALID,0,VALID,25.3195,VALID,358,VALID,0.613281,
2010-02-22, 01:54:05,VALID,1005.84,VALID,0,VALID,88.3806,VALID,0,VALID,25.339,VALID,358,VALID,0.498047,
2010-02-22, 01:55:05,VALID,1005.84,VALID,0,VALID,88.1288,VALID,0,VALID,25.3584,VALID,358,VALID,0.143359,
2010-02-22, 01:56:05,VALID,1005.83,VALID,0,VALID,88.0754,VALID,0,VALID,25.3779,VALID,358,VALID,0.232422,
2010-02-22, 01:57:05,VALID,1005.81,VALID,0,VALID,88.0525,VALID,0,VALID,25.4169,VALID,358,VALID,0.329688,
2010-02-22, 01:58:05,VALID,1005.8,VALID,0,VALID,88.3882,VALID,0,VALID,25.4169,VALID,357,VALID,0.368359,
2010-02-22, 01:59:05,VALID,1005.79,VALID,0,VALID,88.4416,VALID,0,VALID,25.4188,VALID,357,VALID,0.211328,
2010-02-22, 02:00:05,VALID,1005.8,VALID,0,VALID,88.4416,VALID,0,VALID,25.3779,VALID,357,VALID,0.394922,
2010-02-22, 02:01:05,VALID,1005.79,VALID,0,VALID,88.4035,VALID,0,VALID,25.3779,VALID,357,VALID,0.0167969,
2010-02-22, 02:02:05,VALID,1005.8,VALID,0,VALID,88.4721,VALID,0,VALID,25.3779,VALID,357,VALID,0.443359,
2010-02-22, 02:03:05,VALID,1005.8,VALID,0,VALID,88.5789,VALID,0,VALID,25.3779,VALID,357,VALID,0.314453,
2010-02-22, 02:04:05,VALID,1005.78,VALID,0,VALID,88.6705,VALID,0,VALID,25.3779,VALID,357,VALID,0.0703125,
2010-02-22, 02:05:05,VALID,1005.77,VALID,0,VALID,88.6781,VALID,0,VALID,25.3974,VALID,357,VALID,0,
2010-02-22, 02:06:05,VALID,1005.75,VALID,0,VALID,88.8231,VALID,0,VALID,25.3974,VALID,357,VALID,0,
2010-02-22, 02:07:05,VALID,1005.74,VALID,0,VALID,88.8765,VALID,0,VALID,25.3974,VALID,357,VALID,0,
2010-02-22, 02:08:05,VALID,1005.74,VALID,0,VALID,88.8536,VALID,0,VALID,25.3974,VALID,357,VALID,0.304297,
2010-02-22, 02:09:05,VALID,1005.74,VALID,0,VALID,88.9222,VALID,0,VALID,25.4188,VALID,357,VALID,0.473047,
2010-02-22, 02:10:05,VALID,1005.72,VALID,0,VALID,89.1358,VALID,0,VALID,25.4188,VALID,353,VALID,0.483203,
2010-02-22, 02:11:05,VALID,1005.73,VALID,0,VALID,89.2045,VALID,0,VALID,25.3779,VALID,353,VALID,0.429688,
2010-02-22, 02:12:05,VALID,1005.71,VALID,0,VALID,89.3037,VALID,0,VALID,25.3584,VALID,353,VALID,0.251563,
2010-02-22, 02:13:05,VALID,1005.7,VALID,0,VALID,89.3494,VALID,0,VALID,25.3584,VALID,353,VALID,0.239063,
2010-02-22, 02:14:05,VALID,1005.72,VALID,0,VALID,89.441,VALID,0,VALID,25.3798,VALID,353,VALID,0.433203,
2010-02-22, 02:15:05,VALID,1005.69,VALID,0,VALID,89.4944,VALID,0,VALID,25.3584,VALID,353,VALID,0.525391,
2010-02-22, 02:16:05,VALID,1005.7,VALID,0,VALID,89.4563,VALID,0,VALID,25.339,VALID,354,VALID,0.678906,
2010-02-22, 02:17:05,VALID,1005.71,VALID,0,VALID,89.502,VALID,0,VALID,25.339,VALID,354,VALID,0.438281,
2010-02-22, 02:18:05,VALID,1005.72,VALID,0,VALID,89.4639,VALID,0,VALID,25.339,VALID,336,VALID,0.4125,
2010-02-22, 02:19:05,VALID,1005.68,VALID,0,VALID,89.3952,VALID,0,VALID,25.3584,VALID,7,VALID,0.567578,
2010-02-22, 02:20:05,VALID,1005.66,VALID,0,VALID,89.4563,VALID,0,VALID,25.3779,VALID,5,VALID,0.699219,
2010-02-22, 02:21:05,VALID,1005.68,VALID,0,VALID,89.3723,VALID,0,VALID,25.3993,VALID,346,VALID,0.7,
2010-02-22, 02:22:05,VALID,1005.65,VALID,0,VALID,89.3494,VALID,0,VALID,25.3993,VALID,347,VALID,0.823438,
2010-02-22, 02:23:05,VALID,1005.64,VALID,0,VALID,89.3342,VALID,0,VALID,25.3779,VALID,354,VALID,0.479297,
2010-02-22, 02:24:05,VALID,1005.63,VALID,0,VALID,89.3647,VALID,0,VALID,25.4188,VALID,354,VALID,0.299219,
2010-02-22, 02:25:05,VALID,1005.62,VALID,0,VALID,89.2884,VALID,0,VALID,25.4383,VALID,354,VALID,0.131641,
2010-02-22, 02:26:05,VALID,1005.61,VALID,0,VALID,89.2884,VALID,0,VALID,25.3974,VALID,354,VALID,0.0078125,
2010-02-22, 02:27:05,VALID,1005.58,VALID,0,VALID,89.3037,VALID,0,VALID,25.3974,VALID,354,VALID,0,
2010-02-22, 02:28:05,VALID,1005.6,VALID,0,VALID,89.3113,VALID,0,VALID,25.3974,VALID,354,VALID,0.110547,
2010-02-22, 02:29:05,VALID,1005.59,VALID,0,VALID,89.3647,VALID,0,VALID,25.4169,VALID,354,VALID,0.1,
2010-02-22, 02:30:05,VALID,1005.58,VALID,0,VALID,89.2426,VALID,0,VALID,25.4363,VALID,354,VALID,0.1625,
2010-02-22, 02:31:05,VALID,1005.58,VALID,0,VALID,89.2121,VALID,0,VALID,25.4363,VALID,354,VALID,0.0257812,
2010-02-22, 02:32:05,VALID,1005.56,VALID,0,VALID,89.113,VALID,0,VALID,25.4558,VALID,354,VALID,0.485547,
2010-02-22, 02:33:05,VALID,1005.55,VALID,0,VALID,88.9833,VALID,0,VALID,25.4772,VALID,353,VALID,0.207422,
2010-02-22, 02:34:05,VALID,1005.56,VALID,0,VALID,88.9299,VALID,0,VALID,25.4753,VALID,354,VALID,0.428125,
2010-02-22, 02:35:05,VALID,1005.58,VALID,0,VALID,88.8841,VALID,0,VALID,25.5357,VALID,354,VALID,0.529297,
2010-02-22, 02:36:05,VALID,1005.57,VALID,0,VALID,88.907,VALID,0,VALID,25.5142,VALID,356,VALID,0.602734,
2010-02-22, 02:37:05,VALID,1005.55,VALID,0,VALID,88.9222,VALID,0,VALID,25.5142,VALID,345,VALID,0.665234,
2010-02-22, 02:38:05,VALID,1005.52,VALID,0,VALID,88.8841,VALID,0,VALID,25.4948,VALID,345,VALID,0.453906,
2010-02-22, 02:39:05,VALID,1005.54,VALID,0,VALID,88.9375,VALID,0,VALID,25.4948,VALID,353,VALID,0.824219,
2010-02-22, 02:40:05,VALID,1005.5,VALID,0,VALID,88.9146,VALID,0,VALID,25.4948,VALID,348,VALID,0.453906,
2010-02-22, 02:41:05,VALID,1005.51,VALID,0,VALID,89.029,VALID,0,VALID,25.5162,VALID,333,VALID,0.519531,
2010-02-22, 02:42:05,VALID,1005.49,VALID,0,VALID,88.9756,VALID,0,VALID,25.4753,VALID,353,VALID,0.548828,
2010-02-22, 02:43:05,VALID,1005.47,VALID,0,VALID,88.9756,VALID,0,VALID,25.4539,VALID,354,VALID,0.569531,
2010-02-22, 02:44:05,VALID,1005.47,VALID,0,VALID,88.907,VALID,0,VALID,25.4772,VALID,342,VALID,0.462891,
2010-02-22, 02:45:05,VALID,1005.43,VALID,0,VALID,88.907,VALID,0,VALID,25.4967,VALID,348,VALID,0.5,
2010-02-22, 02:46:05,VALID,1005.42,VALID,0,VALID,88.9604,VALID,0,VALID,25.4753,VALID,352,VALID,0.315234,
2010-02-22, 02:47:05,VALID,1005.47,VALID,0,VALID,88.9146,VALID,0,VALID,25.5162,VALID,352,VALID,0.0410156,
2010-02-22, 02:48:05,VALID,1005.46,VALID,0,VALID,88.8765,VALID,0,VALID,25.5142,VALID,352,VALID,0.524219,
2010-02-22, 02:49:05,VALID,1005.42,VALID,0,VALID,88.8536,VALID,0,VALID,25.4948,VALID,352,VALID,0.283203,
2010-02-22, 02:50:05,VALID,1005.44,VALID,0,VALID,88.8383,VALID,0,VALID,25.5142,VALID,352,VALID,0.333984,
2010-02-22, 02:51:05,VALID,1005.44,VALID,0,VALID,88.8383,VALID,0,VALID,25.4948,VALID,352,VALID,0.346875,
2010-02-22, 02:52:05,VALID,1005.46,VALID,0,VALID,88.7773,VALID,0,VALID,25.5142,VALID,352,VALID,0.394531,
2010-02-22, 02:53:05,VALID,1005.43,VALID,0,VALID,88.8078,VALID,0,VALID,25.4948,VALID,352,VALID,0.422266,
2010-02-22, 02:54:05,VALID,1005.4,VALID,0,VALID,88.7773,VALID,0,VALID,25.5142,VALID,352,VALID,0.365234,
2010-02-22, 02:55:05,VALID,1005.4,VALID,0,VALID,88.7925,VALID,0,VALID,25.5142,VALID,352,VALID,0.640625,
2010-02-22, 02:56:05,VALID,1005.41,VALID,0,VALID,88.8993,VALID,0,VALID,25.5357,VALID,352,VALID,0.485938,
2010-02-22, 02:57:05,VALID,1005.38,VALID,0,VALID,88.8917,VALID,0,VALID,25.4948,VALID,348,VALID,0.444922,
2010-02-22, 02:58:05,VALID,1005.37,VALID,0,VALID,88.9222,VALID,0,VALID,25.5142,VALID,349,VALID,0.389844,
2010-02-22, 02:59:05,VALID,1005.39,VALID,0,VALID,88.8917,VALID,0,VALID,25.5142,VALID,349,VALID,0.457031,
2010-02-22, 03:00:05,VALID,1005.38,VALID,0,VALID,88.8765,VALID,0,VALID,25.4948,VALID,349,VALID,0.251172,
2010-02-22, 03:01:05,VALID,1005.36,VALID,0,VALID,88.9299,VALID,0,VALID,25.5142,VALID,349,VALID,0.321094,
2010-02-22, 03:02:05,VALID,1005.39,VALID,0,VALID,88.8688,VALID,0,VALID,25.5142,VALID,349,VALID,0.330859,
2010-02-22, 03:03:05,VALID,1005.36,VALID,0,VALID,88.968,VALID,0,VALID,25.5142,VALID,349,VALID,0.288281,
2010-02-22, 03:04:05,VALID,1005.35,VALID,0,VALID,89.1816,VALID,0,VALID,25.4753,VALID,349,VALID,0.257031,
2010-02-22, 03:05:05,VALID,1005.34,VALID,0,VALID,89.2732,VALID,0,VALID,25.4558,VALID,347,VALID,0.119531,
2010-02-22, 03:06:05,VALID,1005.32,VALID,0,VALID,89.3571,VALID,0,VALID,25.4577,VALID,347,VALID,0.124219,
2010-02-22, 03:07:05,VALID,1005.34,VALID,0,VALID,89.3952,VALID,0,VALID,25.4363,VALID,347,VALID,0.204297,
2010-02-22, 03:08:05,VALID,1005.37,VALID,0,VALID,89.3876,VALID,0,VALID,25.4169,VALID,347,VALID,0.0386719,
2010-02-22, 03:09:05,VALID,1005.36,VALID,0,VALID,89.4563,VALID,0,VALID,25.4363,VALID,347,VALID,0.225,
2010-02-22, 03:10:05,VALID,1005.41,VALID,0,VALID,89.4486,VALID,0,VALID,25.4363,VALID,347,VALID,0.274609,
2010-02-22, 03:11:05,VALID,1005.38,VALID,0,VALID,89.5325,VALID,0,VALID,25.4169,VALID,347,VALID,0.161328,
2010-02-22, 03:12:05,VALID,1005.39,VALID,0,VALID,89.6241,VALID,0,VALID,25.3974,VALID,347,VALID,0.172266,
2010-02-22, 03:13:05,VALID,1005.4,VALID,0,VALID,89.708,VALID,0,VALID,25.3974,VALID,347,VALID,0.112891,
2010-02-22, 03:14:05,VALID,1005.4,VALID,0,VALID,89.7843,VALID,0,VALID,25.3779,VALID,347,VALID,0,
2010-02-22, 03:15:05,VALID,1005.41,VALID,0,VALID,89.8758,VALID,0,VALID,25.3993,VALID,347,VALID,0.424219,
2010-02-22, 03:16:05,VALID,1005.39,VALID,0,VALID,90.0513,VALID,0,VALID,25.3584,VALID,347,VALID,0.452734,
2010-02-22, 03:17:05,VALID,1005.38,VALID,0,VALID,90.2344,VALID,0,VALID,25.339,VALID,347,VALID,0.5125,
2010-02-22, 03:18:05,VALID,1005.4,VALID,0,VALID,90.4556,VALID,0,VALID,25.3,VALID,347,VALID,0.514844,
2010-02-22, 03:19:05,VALID,1005.4,VALID,0,VALID,90.7455,VALID,0,VALID,25.2611,VALID,347,VALID,0.494922,
2010-02-22, 03:20:05,VALID,1005.41,VALID,0,VALID,91.0278,VALID,0,VALID,25.2027,VALID,347,VALID,0.451953,
2010-02-22, 03:21:05,VALID,1005.4,VALID,0,VALID,91.3406,VALID,0,VALID,25.1637,VALID,347,VALID,0.394141,
2010-02-22, 03:22:05,VALID,1005.4,VALID,0,VALID,91.5771,VALID,0,VALID,25.1461,VALID,347,VALID,0.467187,
2010-02-22, 03:23:05,VALID,1005.4,VALID,0,VALID,91.7678,VALID,0,VALID,25.1267,VALID,347,VALID,0.354688,
2010-02-22, 03:24:05,VALID,1005.38,VALID,0,VALID,91.867,VALID,0,VALID,25.1461,VALID,351,VALID,0.552734,
2010-02-22, 03:25:05,VALID,1005.43,VALID,0,VALID,91.8517,VALID,0,VALID,25.1248,VALID,351,VALID,0.2625,
2010-02-22, 03:26:05,VALID,1005.43,VALID,0,VALID,91.8517,VALID,0,VALID,25.1442,VALID,352,VALID,0.0992187,
2010-02-22, 03:27:05,VALID,1005.41,VALID,0,VALID,91.7983,VALID,0,VALID,25.1442,VALID,352,VALID,0.351563,
2010-02-22, 03:28:05,VALID,1005.44,VALID,0,VALID,91.7144,VALID,0,VALID,25.1851,VALID,352,VALID,0.323828,
2010-02-22, 03:29:05,VALID,1005.45,VALID,0,VALID,91.6839,VALID,0,VALID,25.1832,VALID,352,VALID,0.342187,
2010-02-22, 03:30:05,VALID,1005.45,VALID,0,VALID,91.7144,VALID,0,VALID,25.2046,VALID,352,VALID,0.292188,
2010-02-22, 03:31:05,VALID,1005.48,VALID,0,VALID,91.7754,VALID,0,VALID,25.1637,VALID,352,VALID,0.296094,
2010-02-22, 03:32:05,VALID,1005.47,VALID,0,VALID,91.8212,VALID,0,VALID,25.1034,VALID,352,VALID,0.361328,
2010-02-22, 03:33:05,VALID,1005.5,VALID,0,VALID,91.9585,VALID,0,VALID,25.1053,VALID,352,VALID,0.428906,
2010-02-22, 03:34:05,VALID,1005.48,VALID,0,VALID,92.0806,VALID,0,VALID,25.0663,VALID,352,VALID,0.357812,
2010-02-22, 03:35:05,VALID,1005.5,VALID,0,VALID,92.2332,VALID,0,VALID,25.0488,VALID,352,VALID,0.284375,
2010-02-22, 03:36:05,VALID,1005.48,VALID,0,VALID,92.3476,VALID,0,VALID,24.9885,VALID,352,VALID,0.295312,
2010-02-22, 03:37:05,VALID,1005.5,VALID,0,VALID,92.462,VALID,0,VALID,24.9709,VALID,352,VALID,0.328906,
2010-02-22, 03:38:05,VALID,1005.49,VALID,0,VALID,92.5993,VALID,0,VALID,24.9106,VALID,352,VALID,0.365234,
2010-02-22, 03:39:05,VALID,1005.51,VALID,0,VALID,92.7138,VALID,0,VALID,24.9125,VALID,352,VALID,0.379687,
2010-02-22, 03:40:05,VALID,1005.52,VALID,0,VALID,92.8816,VALID,0,VALID,24.8716,VALID,352,VALID,0.247656,
2010-02-22, 03:41:05,VALID,1005.54,VALID,0,VALID,93.0189,VALID,0,VALID,24.8522,VALID,352,VALID,0.280078,
2010-02-22, 03:42:05,VALID,1005.55,VALID,0,VALID,93.1105,VALID,0,VALID,24.854,VALID,352,VALID,0.136719,
2010-02-22, 03:43:05,VALID,1005.55,VALID,0,VALID,93.202,VALID,0,VALID,24.8132,VALID,352,VALID,0.224219,
2010-02-22, 03:44:05,VALID,1005.54,VALID,0,VALID,93.2936,VALID,0,VALID,24.8132,VALID,352,VALID,0.429688,
2010-02-22, 03:45:05,VALID,1005.58,VALID,0,VALID,93.3394,VALID,0,VALID,24.7743,VALID,352,VALID,0.211328,